Flag for Puerto Rico Weather past 2 weeks in Caguas, Puerto Rico

Now
86 °F

Scattered clouds.


Feels Like: 92 °F
Forecast: N/A
Wind: 8 mph from Southeast

Location: Luis Munoz Marin

Current Time: May 28, 2015 at 7:08:42 PM

Latest Report: May 28, 2015 at 5:56 PM


Visibility: 10 mi

Pressure: 29.93 "Hg

Humidity: 61%

Dew point: 71 °F

Location of CaguasLocation

Historic Weather in Caguas — Graph

°F

Caguas temperature yesterday

Maximum temperature yesterday: 86 °F (at 1:56 PM)
Minimum temperature yesterday: 77 °F (at 3:56 AM)
Average temperature yesterday: 81 °F

Past Weeks' High & Low Weather Summary

 TemperatureHumidityPressure
High90 °F (May 22, 12:56 PM)97% (May 20, 5:56 PM)30.14 "Hg (May 20, 5:56 PM)
Low76 °F (May 14, 4:56 AM)54% (May 28, 4:56 PM)29.92 "Hg (May 28, 2:56 AM)
Average82 °F77%30.04 "Hg
* Reported May 13 4:56 PM — May 28 4:56 PM, Caguas, Weather by CustomWeather, © 2015

Note: Actual official high and low records may vary slightly from our data, if they occured in-between our weather recording intervals... More about our weather records

Advertising

Caguas weather history for previous 24 hours

 ConditionsComfort  
Time TempWeatherWind HumidityBarometerVisibility
4:56 PM
Thu, May 28
88 °FScattered clouds.6 mph54%29.93 "Hg10 mi
3:56 PM87 °FScattered clouds.10 mph61%29.93 "Hg10 mi
2:56 PM85 °FScattered clouds.17 mph70%29.93 "Hg10 mi
1:56 PM88 °FScattered clouds.16 mph65%29.94 "Hg10 mi
12:56 PM87 °FScattered clouds.12 mph67%29.96 "Hg10 mi
11:56 AM83 °FScattered clouds.10 mph74%29.98 "Hg10 mi
10:56 AM85 °FScattered clouds.9 mph65%29.99 "Hg10 mi
9:56 AM84 °FScattered clouds.10 mph72%29.99 "Hg10 mi
8:56 AM84 °FScattered clouds.No wind67%29.99 "Hg10 mi
7:56 AM81 °FScattered clouds.No wind72%29.98 "Hg10 mi
6:56 AM78 °FScattered clouds.No wind79%29.97 "Hg10 mi
5:56 AM77 °FPassing clouds.No wind82%29.95 "Hg10 mi
4:56 AM77 °FPassing clouds.No wind85%29.94 "Hg10 mi
3:56 AM77 °FPassing clouds.3 mph85%29.93 "Hg10 mi
2:56 AM77 °FPassing clouds.No wind82%29.92 "Hg10 mi
1:56 AM78 °FPassing clouds.3 mph79%29.94 "Hg10 mi
12:56 AM79 °FPassing clouds.3 mph77%29.96 "Hg10 mi
11:56 PM
Wed, May 27
80 °FPassing clouds.3 mph74%29.97 "Hg10 mi
10:56 PM80 °FPassing clouds.5 mph74%29.98 "Hg10 mi
9:56 PM80 °FPassing clouds.6 mph76%29.98 "Hg10 mi
8:56 PM81 °FPassing clouds.7 mph74%29.98 "Hg10 mi
7:56 PM81 °FPassing clouds.8 mph72%29.97 "Hg10 mi
Weather by CustomWeather, © 2015

See weather overviewHow to use our weather pages